contact:dominique.lefevre@mio.osupytheas.fr, maurice.libes@osupytheas.fr, didier.mallarino@osupytheas.fr
Project:EMSO http://www.emso-fr.org/EMSO-France
Depth: 2436.0 m
Title:EMSO Ligure Ouest : Data MII capteur MICROCAT
DateTime_Computer,Latitude,Longitude,Temperature,Conductivity,Pressure,DateTime_Instrument
DateTime_Computer,Latitude,Longitude,degC,S m-1,dbar,DateTime_Instrument
2023-08-20T00:01:02Z,42.805,6.029,13.3066,4.60129,2470.777,2023-8-20T02:03:22Z
2023-08-20T00:04:06Z,42.805,6.029,13.3046,4.60138,2470.787,2023-8-20T02:06:25Z
2023-08-20T00:07:09Z,42.805,6.029,13.3072,4.60143,2470.754,2023-8-20T02:09:28Z
2023-08-20T00:10:12Z,42.805,6.029,13.3059,4.60138,2470.717,2023-8-20T02:12:31Z
2023-08-20T00:13:15Z,42.805,6.029,13.3061,4.60120,2470.717,2023-8-20T02:15:34Z
2023-08-20T00:16:18Z,42.805,6.029,13.3052,4.60135,2470.717,2023-8-20T02:18:38Z
2023-08-20T00:19:21Z,42.805,6.029,13.3061,4.60152,2470.73,2023-8-20T02:21:41Z
2023-08-20T00:22:24Z,42.805,6.029,13.3056,4.60160,2470.74,2023-8-20T02:24:44Z
2023-08-20T00:25:27Z,42.805,6.029,13.3060,4.60168,2470.73,2023-8-20T02:27:47Z
2023-08-20T00:28:30Z,42.805,6.029,13.3058,4.60155,2470.73,2023-8-20T02:30:50Z
2023-08-20T00:31:33Z,42.805,6.029,13.3051,4.60161,2470.679,2023-8-20T02:33:53Z
2023-08-20T00:34:36Z,42.805,6.029,13.3046,4.60160,2470.717,2023-8-20T02:36:56Z
2023-08-20T00:37:39Z,42.805,6.029,13.3055,4.60167,2470.717,2023-8-20T02:39:59Z
2023-08-20T00:40:42Z,42.805,6.029,13.3057,4.60174,2470.73,2023-8-20T02:43:02Z
2023-08-20T00:43:46Z,42.805,6.029,13.3055,4.60127,2470.754,2023-8-20T02:46:05Z
2023-08-20T00:46:49Z,42.805,6.029,13.3048,4.60160,2470.754,2023-8-20T02:49:08Z
2023-08-20T00:49:52Z,42.805,6.029,13.3056,4.60166,2470.717,2023-8-20T02:52:11Z
2023-08-20T00:52:55Z,42.805,6.029,13.3050,4.60162,2470.693,2023-8-20T02:55:15Z
2023-08-20T00:55:58Z,42.805,6.029,13.3051,4.60190,2470.703,2023-8-20T02:58:18Z
2023-08-20T00:59:01Z,42.805,6.029,13.3076,4.60154,2470.74,2023-8-20T03:01:21Z
2023-08-20T01:02:04Z,42.805,6.029,13.3059,4.60174,2470.717,2023-8-20T03:04:24Z
2023-08-20T01:05:07Z,42.805,6.029,13.3057,4.60172,2470.693,2023-8-20T03:07:27Z
2023-08-20T01:08:10Z,42.805,6.029,13.3056,4.60152,2470.717,2023-8-20T03:10:30Z
2023-08-20T01:11:13Z,42.805,6.029,13.3063,4.60160,2470.679,2023-8-20T03:13:33Z
2023-08-20T01:14:16Z,42.805,6.029,13.3056,4.60143,2470.67,2023-8-20T03:16:36Z
2023-08-20T01:17:19Z,42.805,6.029,13.3062,4.60176,2470.717,2023-8-20T03:19:39Z
2023-08-20T01:20:23Z,42.805,6.029,13.3054,4.60184,2470.684,2023-8-20T03:22:42Z
2023-08-20T01:23:26Z,42.805,6.029,13.3081,4.60198,2470.707,2023-8-20T03:25:45Z
2023-08-20T01:26:29Z,42.805,6.029,13.3074,4.60202,2470.67,2023-8-20T03:28:48Z
2023-08-20T01:29:32Z,42.805,6.029,13.3074,4.60179,2470.67,2023-8-20T03:31:51Z
2023-08-20T01:32:35Z,42.805,6.029,13.3067,4.60164,2470.67,2023-8-20T03:34:55Z
2023-08-20T01:35:38Z,42.805,6.029,13.3054,4.60184,2470.693,2023-8-20T03:37:58Z
2023-08-20T01:38:41Z,42.805,6.029,13.3049,4.60195,2470.67,2023-8-20T03:41:01Z
2023-08-20T01:41:44Z,42.805,6.029,13.3073,4.60190,2470.67,2023-8-20T03:44:04Z
2023-08-20T01:44:47Z,42.805,6.029,13.3084,4.60193,2470.693,2023-8-20T03:47:07Z
2023-08-20T01:47:50Z,42.805,6.029,13.3063,4.60184,2470.693,2023-8-20T03:50:10Z
2023-08-20T01:50:53Z,42.805,6.029,13.3050,4.60175,2470.707,2023-8-20T03:53:13Z
2023-08-20T01:53:56Z,42.805,6.029,13.3056,4.60133,2470.693,2023-8-20T03:56:16Z
2023-08-20T01:56:59Z,42.805,6.029,13.3054,4.60164,2470.693,2023-8-20T03:59:19Z
2023-08-20T02:00:03Z,42.805,6.029,13.3056,4.60190,2470.661,2023-8-20T04:02:22Z
2023-08-20T02:03:06Z,42.805,6.029,13.3063,4.60201,2470.684,2023-8-20T04:05:25Z
2023-08-20T02:06:09Z,42.805,6.029,13.3053,4.60198,2470.693,2023-8-20T04:08:28Z
2023-08-20T02:09:12Z,42.805,6.029,13.3054,4.60198,2470.693,2023-8-20T04:11:32Z
2023-08-20T02:12:15Z,42.805,6.029,13.3058,4.60169,2470.67,2023-8-20T04:14:35Z
2023-08-20T02:15:18Z,42.805,6.029,13.3075,4.60149,2470.67,2023-8-20T04:17:38Z
2023-08-20T02:18:21Z,42.805,6.029,13.3068,4.60198,2470.67,2023-8-20T04:20:41Z
2023-08-20T02:21:24Z,42.805,6.029,13.3051,4.60215,2470.684,2023-8-20T04:23:44Z
2023-08-20T02:24:27Z,42.805,6.029,13.3066,4.60217,2470.693,2023-8-20T04:26:47Z
2023-08-20T02:27:30Z,42.805,6.029,13.3070,4.60197,2470.637,2023-8-20T04:29:50Z
2023-08-20T02:30:33Z,42.805,6.029,13.3069,4.60178,2470.67,2023-8-20T04:32:53Z
2023-08-20T02:33:36Z,42.805,6.029,13.3053,4.60188,2470.646,2023-8-20T04:35:56Z
2023-08-20T02:36:40Z,42.805,6.029,13.3070,4.60169,2470.646,2023-8-20T04:38:59Z
2023-08-20T02:39:43Z,42.805,6.029,13.3084,4.60120,2470.67,2023-8-20T04:42:02Z
2023-08-20T02:42:46Z,42.805,6.029,13.3069,4.60137,2470.67,2023-8-20T04:45:05Z
2023-08-20T02:45:49Z,42.805,6.029,13.3054,4.60146,2470.661,2023-8-20T04:48:08Z
2023-08-20T02:48:52Z,42.805,6.029,13.3063,4.60170,2470.67,2023-8-20T04:51:12Z
2023-08-20T02:51:55Z,42.805,6.029,13.3061,4.60208,2470.624,2023-8-20T04:54:15Z
2023-08-20T02:54:58Z,42.805,6.029,13.3067,4.60180,2470.661,2023-8-20T04:57:18Z
2023-08-20T02:58:01Z,42.805,6.029,13.3085,4.60133,2470.646,2023-8-20T05:00:21Z
2023-08-20T03:01:04Z,42.805,6.029,13.3089,4.60144,2470.637,2023-8-20T05:03:24Z
2023-08-20T03:04:07Z,42.805,6.029,13.3104,4.60122,2470.661,2023-8-20T05:06:27Z
2023-08-20T03:07:10Z,42.805,6.029,13.3097,4.60181,2470.67,2023-8-20T05:09:30Z
2023-08-20T03:10:13Z,42.805,6.029,13.3096,4.60184,2470.684,2023-8-20T05:12:33Z
2023-08-20T03:13:16Z,42.805,6.029,13.3079,4.60182,2470.646,2023-8-20T05:15:36Z
2023-08-20T03:16:20Z,42.805,6.029,13.3087,4.60152,2470.624,2023-8-20T05:18:39Z
2023-08-20T03:19:23Z,42.805,6.029,13.3111,4.60125,2470.661,2023-8-20T05:21:42Z
2023-08-20T03:22:26Z,42.805,6.029,13.3091,4.60148,2470.661,2023-8-20T05:24:45Z
2023-08-20T03:25:29Z,42.805,6.029,13.3089,4.60145,2470.637,2023-8-20T05:27:49Z
2023-08-20T03:28:32Z,42.805,6.029,13.3093,4.60122,2470.637,2023-8-20T05:30:52Z
2023-08-20T03:31:35Z,42.805,6.029,13.3076,4.60146,2470.646,2023-8-20T05:33:55Z
2023-08-20T03:34:38Z,42.805,6.029,13.3067,4.60152,2470.646,2023-8-20T05:36:58Z
2023-08-20T03:37:41Z,42.805,6.029,13.3073,4.60118,2470.637,2023-8-20T05:40:01Z
2023-08-20T03:40:44Z,42.805,6.029,13.3073,4.60120,2470.624,2023-8-20T05:43:04Z
2023-08-20T03:43:47Z,42.805,6.029,13.3069,4.60134,2470.637,2023-8-20T05:46:07Z
2023-08-20T03:46:50Z,42.805,6.029,13.3056,4.60144,2470.637,2023-8-20T05:49:10Z
2023-08-20T03:49:53Z,42.805,6.029,13.3077,4.60117,2470.646,2023-8-20T05:52:13Z
2023-08-20T03:52:57Z,42.805,6.029,13.3075,4.60135,2470.661,2023-8-20T05:55:16Z
2023-08-20T03:56:00Z,42.805,6.029,13.3076,4.60155,2470.637,2023-8-20T05:58:19Z
2023-08-20T03:59:03Z,42.805,6.029,13.3089,4.60133,2470.6,2023-8-20T06:01:22Z
2023-08-20T04:02:06Z,42.805,6.029,13.3078,4.60122,2470.637,2023-8-20T06:04:25Z
2023-08-20T04:05:09Z,42.805,6.029,13.3088,4.60137,2470.661,2023-8-20T06:07:29Z
2023-08-20T04:08:12Z,42.805,6.029,13.3104,4.60145,2470.624,2023-8-20T06:10:32Z
2023-08-20T04:11:15Z,42.805,6.029,13.3085,4.60140,2470.624,2023-8-20T06:13:35Z
2023-08-20T04:14:18Z,42.805,6.029,13.3096,4.60122,2470.637,2023-8-20T06:16:38Z
2023-08-20T04:17:21Z,42.805,6.029,13.3075,4.60140,2470.637,2023-8-20T06:19:41Z
2023-08-20T04:20:24Z,42.805,6.029,13.3118,4.60137,2470.624,2023-8-20T06:22:44Z
2023-08-20T04:23:27Z,42.805,6.029,13.3084,4.60114,2470.661,2023-8-20T06:25:47Z
2023-08-20T04:26:30Z,42.805,6.029,13.3082,4.60127,2470.646,2023-8-20T06:28:50Z
2023-08-20T04:29:34Z,42.805,6.029,13.3091,4.60123,2470.661,2023-8-20T06:31:53Z
2023-08-20T04:32:37Z,42.805,6.029,13.3083,4.60146,2470.624,2023-8-20T06:34:56Z
2023-08-20T04:35:40Z,42.805,6.029,13.3078,4.60126,2470.6,2023-8-20T06:37:59Z
2023-08-20T04:38:43Z,42.805,6.029,13.3086,4.60148,2470.614,2023-8-20T06:41:02Z
2023-08-20T04:41:46Z,42.805,6.029,13.3096,4.60130,2470.637,2023-8-20T06:44:06Z
2023-08-20T04:44:49Z,42.805,6.029,13.3095,4.60131,2470.637,2023-8-20T06:47:09Z
2023-08-20T04:47:52Z,42.805,6.029,13.3106,4.60124,2470.637,2023-8-20T06:50:12Z
2023-08-20T04:50:55Z,42.805,6.029,13.3067,4.60137,2470.637,2023-8-20T06:53:15Z
2023-08-20T04:53:58Z,42.805,6.029,13.3092,4.60151,2470.624,2023-8-20T06:56:18Z
2023-08-20T04:57:01Z,42.805,6.029,13.3084,4.60160,2470.637,2023-8-20T06:59:21Z
2023-08-20T05:00:04Z,42.805,6.029,13.3165,4.60139,2470.661,2023-8-20T07:02:24Z
2023-08-20T05:03:07Z,42.805,6.029,13.3101,4.60152,2470.646,2023-8-20T07:05:27Z
2023-08-20T05:06:10Z,42.805,6.029,13.3111,4.60147,2470.67,2023-8-20T07:08:30Z
2023-08-20T05:09:14Z,42.805,6.029,13.3101,4.60148,2470.624,2023-8-20T07:11:33Z
2023-08-20T05:12:17Z,42.805,6.029,13.3109,4.60129,2470.646,2023-8-20T07:14:36Z
2023-08-20T05:15:20Z,42.805,6.029,13.3094,4.60132,2470.637,2023-8-20T07:17:39Z
2023-08-20T05:18:23Z,42.805,6.029,13.3078,4.60131,2470.637,2023-8-20T07:20:43Z
2023-08-20T05:21:26Z,42.805,6.029,13.3088,4.60133,2470.661,2023-8-20T07:23:46Z
2023-08-20T05:24:29Z,42.805,6.029,13.3109,4.60142,2470.661,2023-8-20T07:26:49Z
2023-08-20T05:27:32Z,42.805,6.029,13.3054,4.60152,2470.67,2023-8-20T07:29:52Z
2023-08-20T05:30:35Z,42.805,6.029,13.3063,4.60162,2470.646,2023-8-20T07:32:55Z
2023-08-20T05:33:38Z,42.805,6.029,13.3082,4.60135,2470.661,2023-8-20T07:35:58Z
2023-08-20T05:36:41Z,42.805,6.029,13.3041,4.60149,2470.633,2023-8-20T07:39:01Z
2023-08-20T05:39:44Z,42.805,6.029,13.3091,4.60150,2470.661,2023-8-20T07:42:04Z
2023-08-20T05:42:47Z,42.805,6.029,13.3053,4.60142,2470.646,2023-8-20T07:45:07Z
2023-08-20T05:45:51Z,42.805,6.029,13.3035,4.60139,2470.684,2023-8-20T07:48:10Z
2023-08-20T05:48:54Z,42.805,6.029,13.3031,4.60137,2470.661,2023-8-20T07:51:13Z
2023-08-20T05:51:57Z,42.805,6.029,13.3032,4.60131,2470.693,2023-8-20T07:54:16Z
2023-08-20T05:55:00Z,42.805,6.029,13.3035,4.60117,2470.646,2023-8-20T07:57:20Z
2023-08-20T05:58:03Z,42.805,6.029,13.3029,4.60114,2470.67,2023-8-20T08:00:23Z
2023-08-20T06:01:06Z,42.805,6.029,13.3032,4.60109,2470.684,2023-8-20T08:03:26Z
2023-08-20T06:04:09Z,42.805,6.029,13.3031,4.60115,2470.67,2023-8-20T08:06:29Z
2023-08-20T06:07:12Z,42.805,6.029,13.3030,4.60117,2470.73,2023-8-20T08:09:32Z
2023-08-20T06:10:15Z,42.805,6.029,13.3031,4.60117,2470.707,2023-8-20T08:12:35Z
2023-08-20T06:13:18Z,42.805,6.029,13.3031,4.60107,2470.717,2023-8-20T08:15:38Z
2023-08-20T06:16:21Z,42.805,6.029,13.3031,4.60119,2470.679,2023-8-20T08:18:41Z
2023-08-20T06:19:24Z,42.805,6.029,13.3034,4.60110,2470.67,2023-8-20T08:21:44Z
2023-08-20T06:22:27Z,42.805,6.029,13.3030,4.60114,2470.693,2023-8-20T08:24:47Z
2023-08-20T06:25:31Z,42.805,6.029,13.3035,4.60110,2470.707,2023-8-20T08:27:50Z
2023-08-20T06:28:34Z,42.805,6.029,13.3032,4.60113,2470.707,2023-8-20T08:30:53Z
2023-08-20T06:31:36Z,42.805,6.029,13.3029,4.60110,2470.67,2023-8-20T08:33:56Z
2023-08-20T06:34:39Z,42.805,6.029,13.3029,4.60108,2470.693,2023-8-20T08:36:59Z
2023-08-20T06:37:42Z,42.805,6.029,13.3033,4.60101,2470.693,2023-8-20T08:40:02Z
2023-08-20T06:40:45Z,42.805,6.029,13.3029,4.60101,2470.73,2023-8-20T08:43:05Z
2023-08-20T06:43:48Z,42.805,6.029,13.3033,4.60102,2470.67,2023-8-20T08:46:08Z
2023-08-20T06:46:51Z,42.805,6.029,13.3033,4.60108,2470.707,2023-8-20T08:49:11Z
2023-08-20T06:49:54Z,42.805,6.029,13.3028,4.60104,2470.693,2023-8-20T08:52:14Z
2023-08-20T06:52:57Z,42.805,6.029,13.3028,4.60102,2470.74,2023-8-20T08:55:17Z
2023-08-20T06:56:01Z,42.805,6.029,13.3028,4.60102,2470.726,2023-8-20T08:58:20Z
2023-08-20T06:59:04Z,42.805,6.029,13.3031,4.60110,2470.707,2023-8-20T09:01:23Z
2023-08-20T07:02:07Z,42.805,6.029,13.3032,4.60110,2470.717,2023-8-20T09:04:26Z
2023-08-20T07:05:10Z,42.805,6.029,13.3031,4.60109,2470.717,2023-8-20T09:07:30Z
2023-08-20T07:08:13Z,42.805,6.029,13.3030,4.60106,2470.74,2023-8-20T09:10:33Z
2023-08-20T07:11:16Z,42.805,6.029,13.3030,4.60104,2470.74,2023-8-20T09:13:36Z
2023-08-20T07:14:19Z,42.805,6.029,13.3027,4.60102,2470.73,2023-8-20T09:16:39Z
2023-08-20T07:17:22Z,42.805,6.029,13.3026,4.60102,2470.754,2023-8-20T09:19:42Z
2023-08-20T07:20:25Z,42.805,6.029,13.3031,4.60098,2470.74,2023-8-20T09:22:45Z
2023-08-20T07:23:28Z,42.805,6.029,13.3027,4.60104,2470.777,2023-8-20T09:25:48Z
2023-08-20T07:26:31Z,42.805,6.029,13.3032,4.60101,2470.74,2023-8-20T09:28:51Z
2023-08-20T07:29:34Z,42.805,6.029,13.3030,4.60102,2470.777,2023-8-20T09:31:54Z
2023-08-20T07:32:38Z,42.805,6.029,13.3030,4.60102,2470.73,2023-8-20T09:34:57Z
2023-08-20T07:35:41Z,42.805,6.029,13.3030,4.60099,2470.74,2023-8-20T09:38:00Z
2023-08-20T07:38:44Z,42.805,6.029,13.3031,4.60102,2470.717,2023-8-20T09:41:03Z
2023-08-20T07:41:47Z,42.805,6.029,13.3033,4.60101,2470.73,2023-8-20T09:44:06Z
2023-08-20T07:44:50Z,42.805,6.029,13.3036,4.60101,2470.74,2023-8-20T09:47:10Z
2023-08-20T07:47:53Z,42.805,6.029,13.3031,4.60101,2470.763,2023-8-20T09:50:13Z
2023-08-20T07:50:56Z,42.805,6.029,13.3030,4.60103,2470.717,2023-8-20T09:53:16Z
2023-08-20T07:53:59Z,42.805,6.029,13.3031,4.60103,2470.754,2023-8-20T09:56:19Z
2023-08-20T07:57:02Z,42.805,6.029,13.3028,4.60099,2470.763,2023-8-20T09:59:22Z
2023-08-20T08:00:05Z,42.805,6.029,13.3029,4.60102,2470.787,2023-8-20T10:02:25Z
2023-08-20T08:03:08Z,42.805,6.029,13.3029,4.60098,2470.75,2023-8-20T10:05:28Z
2023-08-20T08:06:11Z,42.805,6.029,13.3028,4.60098,2470.787,2023-8-20T10:08:31Z
2023-08-20T08:09:14Z,42.805,6.029,13.3033,4.60099,2470.763,2023-8-20T10:11:34Z
2023-08-20T08:12:18Z,42.805,6.029,13.3031,4.60101,2470.787,2023-8-20T10:14:37Z
2023-08-20T08:15:21Z,42.805,6.029,13.3029,4.60098,2470.763,2023-8-20T10:17:40Z
2023-08-20T08:18:24Z,42.805,6.029,13.3034,4.60097,2470.763,2023-8-20T10:20:43Z
2023-08-20T08:21:27Z,42.805,6.029,13.3030,4.60101,2470.74,2023-8-20T10:23:47Z
2023-08-20T08:24:30Z,42.805,6.029,13.3031,4.60099,2470.787,2023-8-20T10:26:50Z
2023-08-20T08:27:33Z,42.805,6.029,13.3036,4.60101,2470.74,2023-8-20T10:29:53Z
2023-08-20T08:30:35Z,42.805,6.029,13.3027,4.60103,2470.787,2023-8-20T10:32:54Z
2023-08-20T08:33:38Z,42.805,6.029,13.3033,4.60102,2470.763,2023-8-20T10:35:57Z
2023-08-20T08:36:41Z,42.805,6.029,13.3031,4.60099,2470.81,2023-8-20T10:39:00Z
2023-08-20T08:39:44Z,42.805,6.029,13.3032,4.60099,2470.763,2023-8-20T10:42:04Z
2023-08-20T08:42:47Z,42.805,6.029,13.3032,4.60097,2470.763,2023-8-20T10:45:07Z
2023-08-20T08:45:50Z,42.805,6.029,13.3031,4.60097,2470.763,2023-8-20T10:48:10Z
2023-08-20T08:48:53Z,42.805,6.029,13.3032,4.60097,2470.754,2023-8-20T10:51:13Z
2023-08-20T08:51:56Z,42.805,6.029,13.3034,4.60098,2470.787,2023-8-20T10:54:16Z
2023-08-20T08:54:59Z,42.805,6.029,13.3034,4.60099,2470.763,2023-8-20T10:57:19Z
2023-08-20T08:58:02Z,42.805,6.029,13.3032,4.60098,2470.763,2023-8-20T11:00:22Z
2023-08-20T09:01:05Z,42.805,6.029,13.3033,4.60099,2470.777,2023-8-20T11:03:25Z
2023-08-20T09:04:08Z,42.805,6.029,13.3029,4.60102,2470.777,2023-8-20T11:06:28Z
2023-08-20T09:07:12Z,42.805,6.029,13.3031,4.60102,2470.763,2023-8-20T11:09:31Z
2023-08-20T09:10:15Z,42.805,6.029,13.3032,4.60097,2470.763,2023-8-20T11:12:34Z
2023-08-20T09:13:18Z,42.805,6.029,13.3032,4.60098,2470.777,2023-8-20T11:15:37Z
2023-08-20T09:16:21Z,42.805,6.029,13.3033,4.60099,2470.81,2023-8-20T11:18:41Z
2023-08-20T09:19:24Z,42.805,6.029,13.3033,4.60099,2470.787,2023-8-20T11:21:44Z
2023-08-20T09:22:27Z,42.805,6.029,13.3033,4.60104,2470.763,2023-8-20T11:24:47Z
2023-08-20T09:25:30Z,42.805,6.029,13.3034,4.60102,2470.787,2023-8-20T11:27:50Z
2023-08-20T09:28:33Z,42.805,6.029,13.3031,4.60098,2470.787,2023-8-20T11:30:53Z
2023-08-20T09:31:36Z,42.805,6.029,13.3030,4.60104,2470.787,2023-8-20T11:33:56Z
2023-08-20T09:34:39Z,42.805,6.029,13.3036,4.60103,2470.787,2023-8-20T11:36:59Z
2023-08-20T09:37:42Z,42.805,6.029,13.3033,4.60105,2470.763,2023-8-20T11:40:02Z
2023-08-20T09:40:45Z,42.805,6.029,13.3032,4.60106,2470.763,2023-8-20T11:43:05Z
2023-08-20T09:43:49Z,42.805,6.029,13.3034,4.60104,2470.787,2023-8-20T11:46:08Z
2023-08-20T09:46:52Z,42.805,6.029,13.3031,4.60101,2470.763,2023-8-20T11:49:11Z
2023-08-20T09:49:55Z,42.805,6.029,13.3031,4.60096,2470.8,2023-8-20T11:52:14Z
2023-08-20T09:52:58Z,42.805,6.029,13.3032,4.60102,2470.777,2023-8-20T11:55:18Z
2023-08-20T09:56:01Z,42.805,6.029,13.3034,4.60099,2470.777,2023-8-20T11:58:21Z
2023-08-20T09:59:04Z,42.805,6.029,13.3035,4.60102,2470.777,2023-8-20T12:01:24Z
2023-08-20T10:02:07Z,42.805,6.029,13.3036,4.60103,2470.777,2023-8-20T12:04:27Z
2023-08-20T10:05:10Z,42.805,6.029,13.3039,4.60097,2470.763,2023-8-20T12:07:30Z
2023-08-20T10:08:13Z,42.805,6.029,13.3031,4.60097,2470.787,2023-8-20T12:10:33Z
2023-08-20T10:11:16Z,42.805,6.029,13.3034,4.60101,2470.787,2023-8-20T12:13:36Z
2023-08-20T10:14:19Z,42.805,6.029,13.3033,4.60096,2470.787,2023-8-20T12:16:39Z
2023-08-20T10:17:22Z,42.805,6.029,13.3034,4.60099,2470.8,2023-8-20T12:19:42Z
2023-08-20T10:20:26Z,42.805,6.029,13.3039,4.60097,2470.763,2023-8-20T12:22:45Z
2023-08-20T10:23:29Z,42.805,6.029,13.3036,4.60096,2470.763,2023-8-20T12:25:48Z
2023-08-20T10:26:32Z,42.805,6.029,13.3034,4.60097,2470.763,2023-8-20T12:28:51Z
2023-08-20T10:29:35Z,42.805,6.029,13.3035,4.60097,2470.763,2023-8-20T12:31:55Z
2023-08-20T10:32:38Z,42.805,6.029,13.3034,4.60097,2470.74,2023-8-20T12:34:58Z
2023-08-20T10:35:41Z,42.805,6.029,13.3029,4.60102,2470.74,2023-8-20T12:38:01Z
2023-08-20T10:38:44Z,42.805,6.029,13.3034,4.60096,2470.763,2023-8-20T12:41:04Z
2023-08-20T10:41:47Z,42.805,6.029,13.3034,4.60099,2470.74,2023-8-20T12:44:07Z
2023-08-20T10:44:50Z,42.805,6.029,13.3035,4.60097,2470.74,2023-8-20T12:47:10Z
2023-08-20T10:47:53Z,42.805,6.029,13.3037,4.60096,2470.74,2023-8-20T12:50:13Z
2023-08-20T10:50:56Z,42.805,6.029,13.3034,4.60099,2470.74,2023-8-20T12:53:16Z
2023-08-20T10:53:59Z,42.805,6.029,13.3036,4.60099,2470.707,2023-8-20T12:56:19Z
2023-08-20T10:57:03Z,42.805,6.029,13.3034,4.60103,2470.754,2023-8-20T12:59:22Z
2023-08-20T11:00:06Z,42.805,6.029,13.3035,4.60097,2470.73,2023-8-20T13:02:25Z
2023-08-20T11:03:09Z,42.805,6.029,13.3039,4.60097,2470.74,2023-8-20T13:05:29Z
2023-08-20T11:06:12Z,42.805,6.029,13.3032,4.60099,2470.74,2023-8-20T13:08:32Z
2023-08-20T11:09:15Z,42.805,6.029,13.3036,4.60098,2470.74,2023-8-20T13:11:35Z
2023-08-20T11:12:18Z,42.805,6.029,13.3036,4.60104,2470.74,2023-8-20T13:14:38Z
2023-08-20T11:15:21Z,42.805,6.029,13.3037,4.60097,2470.717,2023-8-20T13:17:41Z
2023-08-20T11:18:24Z,42.805,6.029,13.3036,4.60095,2470.717,2023-8-20T13:20:44Z
2023-08-20T11:21:27Z,42.805,6.029,13.3033,4.60095,2470.693,2023-8-20T13:23:47Z
2023-08-20T11:24:30Z,42.805,6.029,13.3036,4.60098,2470.693,2023-8-20T13:26:50Z
2023-08-20T11:27:33Z,42.805,6.029,13.3035,4.60096,2470.717,2023-8-20T13:29:53Z
2023-08-20T11:30:37Z,42.805,6.029,13.3036,4.60097,2470.754,2023-8-20T13:32:56Z
2023-08-20T11:33:40Z,42.805,6.029,13.3034,4.60098,2470.73,2023-8-20T13:35:59Z
2023-08-20T11:36:43Z,42.805,6.029,13.3037,4.60096,2470.717,2023-8-20T13:39:02Z
2023-08-20T11:39:46Z,42.805,6.029,13.3036,4.60097,2470.73,2023-8-20T13:42:06Z
2023-08-20T11:42:49Z,42.805,6.029,13.3036,4.60097,2470.717,2023-8-20T13:45:09Z
2023-08-20T11:45:52Z,42.805,6.029,13.3035,4.60096,2470.693,2023-8-20T13:48:12Z
2023-08-20T11:48:55Z,42.805,6.029,13.3034,4.60104,2470.693,2023-8-20T13:51:15Z
2023-08-20T11:51:58Z,42.805,6.029,13.3034,4.60097,2470.73,2023-8-20T13:54:18Z
2023-08-20T11:55:01Z,42.805,6.029,13.3038,4.60096,2470.717,2023-8-20T13:57:21Z
2023-08-20T11:58:04Z,42.805,6.029,13.3033,4.60094,2470.693,2023-8-20T14:00:24Z
2023-08-20T12:01:07Z,42.805,6.029,13.3038,4.60096,2470.693,2023-8-20T14:03:27Z
2023-08-20T12:04:10Z,42.805,6.029,13.3037,4.60097,2470.67,2023-8-20T14:06:30Z
2023-08-20T12:07:14Z,42.805,6.029,13.3034,4.60097,2470.693,2023-8-20T14:09:33Z
2023-08-20T12:10:17Z,42.805,6.029,13.3034,4.60097,2470.707,2023-8-20T14:12:36Z
2023-08-20T12:13:20Z,42.805,6.029,13.3034,4.60099,2470.693,2023-8-20T14:15:39Z
2023-08-20T12:16:23Z,42.805,6.029,13.3033,4.60101,2470.693,2023-8-20T14:18:43Z
2023-08-20T12:19:26Z,42.805,6.029,13.3034,4.60095,2470.693,2023-8-20T14:21:46Z
2023-08-20T12:22:29Z,42.805,6.029,13.3034,4.60096,2470.693,2023-8-20T14:24:49Z
2023-08-20T12:25:32Z,42.805,6.029,13.3033,4.60095,2470.717,2023-8-20T14:27:52Z
2023-08-20T12:28:35Z,42.805,6.029,13.3029,4.60095,2470.684,2023-8-20T14:30:55Z
2023-08-20T12:31:40Z,42.805,6.029,13.3034,4.60099,2470.707,2023-8-20T14:34:00Z
2023-08-20T12:34:43Z,42.805,6.029,13.3034,4.60095,2470.707,2023-8-20T14:37:03Z
2023-08-20T12:37:46Z,42.805,6.029,13.3031,4.60097,2470.67,2023-8-20T14:40:06Z
2023-08-20T12:40:49Z,42.805,6.029,13.3034,4.60094,2470.67,2023-8-20T14:43:09Z
2023-08-20T12:43:52Z,42.805,6.029,13.3031,4.60095,2470.693,2023-8-20T14:46:12Z
2023-08-20T12:46:55Z,42.805,6.029,13.3033,4.60096,2470.684,2023-8-20T14:49:15Z
2023-08-20T12:49:59Z,42.805,6.029,13.3028,4.60092,2470.646,2023-8-20T14:52:18Z
2023-08-20T12:53:02Z,42.805,6.029,13.3036,4.60101,2470.646,2023-8-20T14:55:21Z
2023-08-20T12:56:05Z,42.805,6.029,13.3033,4.60093,2470.646,2023-8-20T14:58:25Z
2023-08-20T12:59:08Z,42.805,6.029,13.3034,4.60098,2470.684,2023-8-20T15:01:28Z
2023-08-20T13:02:11Z,42.805,6.029,13.3031,4.60093,2470.646,2023-8-20T15:04:31Z
2023-08-20T13:05:14Z,42.805,6.029,13.3033,4.60094,2470.67,2023-8-20T15:07:34Z
2023-08-20T13:08:17Z,42.805,6.029,13.3026,4.60092,2470.646,2023-8-20T15:10:37Z
2023-08-20T13:11:20Z,42.805,6.029,13.3031,4.60092,2470.624,2023-8-20T15:13:40Z
2023-08-20T13:14:23Z,42.805,6.029,13.3029,4.60092,2470.646,2023-8-20T15:16:43Z
2023-08-20T13:17:26Z,42.805,6.029,13.3029,4.60094,2470.661,2023-8-20T15:19:46Z
2023-08-20T13:20:29Z,42.805,6.029,13.3029,4.60092,2470.646,2023-8-20T15:22:49Z
2023-08-20T13:23:33Z,42.805,6.029,13.3032,4.60095,2470.646,2023-8-20T15:25:52Z
2023-08-20T13:26:36Z,42.805,6.029,13.3029,4.60094,2470.646,2023-8-20T15:28:55Z
2023-08-20T13:29:39Z,42.805,6.029,13.3029,4.60096,2470.67,2023-8-20T15:31:58Z
2023-08-20T13:32:42Z,42.805,6.029,13.3029,4.60093,2470.661,2023-8-20T15:35:02Z
2023-08-20T13:35:45Z,42.805,6.029,13.3034,4.60092,2470.646,2023-8-20T15:38:05Z
2023-08-20T13:38:48Z,42.805,6.029,13.3027,4.60094,2470.637,2023-8-20T15:41:08Z
2023-08-20T13:41:51Z,42.805,6.029,13.3032,4.60093,2470.661,2023-8-20T15:44:11Z
2023-08-20T13:44:54Z,42.805,6.029,13.3031,4.60096,2470.637,2023-8-20T15:47:14Z
2023-08-20T13:47:57Z,42.805,6.029,13.3029,4.60094,2470.684,2023-8-20T15:50:17Z
2023-08-20T13:51:00Z,42.805,6.029,13.3028,4.60092,2470.646,2023-8-20T15:53:20Z
2023-08-20T13:54:03Z,42.805,6.029,13.3029,4.60093,2470.624,2023-8-20T15:56:23Z
2023-08-20T13:57:07Z,42.805,6.029,13.3029,4.60098,2470.61,2023-8-20T15:59:26Z
2023-08-20T14:00:10Z,42.805,6.029,13.3032,4.60092,2470.646,2023-8-20T16:02:29Z
2023-08-20T14:03:13Z,42.805,6.029,13.3031,4.60091,2470.624,2023-8-20T16:05:32Z
2023-08-20T14:06:16Z,42.805,6.029,13.3033,4.60092,2470.624,2023-8-20T16:08:36Z
2023-08-20T14:09:19Z,42.805,6.029,13.3029,4.60094,2470.614,2023-8-20T16:11:39Z
2023-08-20T14:12:22Z,42.805,6.029,13.3028,4.60092,2470.614,2023-8-20T16:14:42Z
2023-08-20T14:15:25Z,42.805,6.029,13.3033,4.60090,2470.624,2023-8-20T16:17:45Z
2023-08-20T14:18:28Z,42.805,6.029,13.3031,4.60092,2470.646,2023-8-20T16:20:48Z
2023-08-20T14:21:31Z,42.805,6.029,13.3036,4.60092,2470.614,2023-8-20T16:23:51Z
2023-08-20T14:24:34Z,42.805,6.029,13.3033,4.60096,2470.614,2023-8-20T16:26:54Z
2023-08-20T14:27:37Z,42.805,6.029,13.3029,4.60094,2470.637,2023-8-20T16:29:57Z
2023-08-20T14:30:40Z,42.805,6.029,13.3032,4.60094,2470.624,2023-8-20T16:33:00Z
2023-08-20T14:33:43Z,42.805,6.029,13.3031,4.60092,2470.624,2023-8-20T16:36:03Z
2023-08-20T14:36:46Z,42.805,6.029,13.3028,4.60092,2470.684,2023-8-20T16:39:06Z
2023-08-20T14:39:49Z,42.805,6.029,13.3033,4.60092,2470.637,2023-8-20T16:42:09Z
2023-08-20T14:42:52Z,42.805,6.029,13.3031,4.60092,2470.6,2023-8-20T16:45:12Z
2023-08-20T14:45:55Z,42.805,6.029,13.3029,4.60092,2470.661,2023-8-20T16:48:15Z
2023-08-20T14:48:58Z,42.805,6.029,13.3030,4.60092,2470.6,2023-8-20T16:51:18Z
2023-08-20T14:52:01Z,42.805,6.029,13.3031,4.60092,2470.6,2023-8-20T16:54:21Z
2023-08-20T14:55:04Z,42.805,6.029,13.3042,4.60094,2470.637,2023-8-20T16:57:24Z
2023-08-20T14:58:08Z,42.805,6.029,13.3034,4.60094,2470.646,2023-8-20T17:00:27Z
2023-08-20T15:01:11Z,42.805,6.029,13.3040,4.60098,2470.614,2023-8-20T17:03:30Z
2023-08-20T15:04:14Z,42.805,6.029,13.3028,4.60094,2470.614,2023-8-20T17:06:34Z
2023-08-20T15:07:17Z,42.805,6.029,13.3039,4.60109,2470.624,2023-8-20T17:09:37Z
2023-08-20T15:10:20Z,42.805,6.029,13.3034,4.60094,2470.6,2023-8-20T17:12:40Z